Weather History for Del Bajio, Mexico

Change the Weather History Date:

Tuesday, March 12, 2013

  Actual Average Record
Temperature  
Mean Temperature 62 °F -  
Max Temperature 80 °F 81 °F 89 °F (2003)
Min Temperature 44 °F 48 °F 37 °F (2008)
Degree Days  
Heating Degree Days 3    
Growing Degree Days 12 (Base 50)    
Moisture  
Dew Point 27 °F    
Average Humidity 30    
Maximum Humidity 57    
Minimum Humidity 12    
Precipitation  
Precipitation 0.00 in - - ()
Sea Level Pressure  
Sea Level Pressure 30.08 in    
Wind  
Wind Speed 3 mph ()    
Max Wind Speed 9 mph    
Max Gust Speed -    
Visibility 8.7 miles    
Events      
Averages and records for this station are not official NWS values.
T = Trace of Precipitation, MM = Missing Value Source: Averaged Metar Reports

Daily Weather History Graph

Daily Weather History Graph

Search for Another Location

Airport:

Trip Planner

Search our weather history database for the weather conditions in past years. The results will help you decide how hot, cold, wet, or windy it might be!

Date:

Astronomy

Mar. 12, 2013 Rise Set
Actual Time 6:56 AM CST 6:54 PM CST
Civil Twilight 6:34 AM CST 7:16 PM CST
Nautical Twilight 6:08 AM CST 7:42 PM CST
Astronomical Twilight 5:43 AM CST 8:08 PM CST
Moon 7:16 AM CST (3/12) 7:55 PM CST (3/12)
Length of Visible Light 12h 42m
Length of Day
11h 57m
New Moon, 1% of the Moon is Illuminated
Mar 12
New Moon
Mar 19
First Quarter
Mar 27
Full
Apr 2
Last Quarter
Apr 10
New

Hourly Weather History & Observations

Time (CST) Temp. Dew Point Humidity Pressure Visibility Wind Dir Wind Speed Gust Speed Precip Events Conditions
12:43 AM 51.8 °F 24.8 °F 35% 30.15 in 8.0 mi ENE 5.8 mph - N/A   Clear
2:38 AM 50.0 °F 28.4 °F 43% 30.12 in 8.0 mi ENE 5.8 mph - N/A   Clear
2:49 AM 48.2 °F 28.4 °F 46% 29.81 in 8.0 mi East 4.6 mph - N/A   Clear
3:43 AM 51.8 °F 30.2 °F 44% 30.12 in 8.0 mi NE 9.2 mph - N/A   Clear
4:43 AM 48.2 °F 30.2 °F 50% 30.12 in 8.0 mi Calm Calm - N/A   Clear
5:43 AM 46.4 °F 30.2 °F 53% 29.83 in 6.0 mi Calm Calm - N/A   Scattered Clouds
6:44 AM 44.6 °F 30.2 °F 57% 30.18 in 7.0 mi Calm Calm - N/A   Scattered Clouds
7:44 AM 46.4 °F 30.2 °F 53% 30.21 in 8.0 mi Calm Calm - N/A   Overcast
8:45 AM 57.2 °F 32.0 °F 38% 29.95 in 9.0 mi Calm Calm - N/A   Overcast
9:40 AM 64.4 °F 32.0 °F 30% 30.27 in 10.0 mi Calm Calm - N/A   Overcast
10:54 AM 69.8 °F 32.0 °F 25% 30.27 in 10.0 mi South 6.9 mph - N/A   Overcast
11:46 AM 73.4 °F 30.2 °F 20% 29.89 in 10.0 mi Calm Calm - N/A   Overcast
12:50 PM 77.0 °F 26.6 °F 16% 30.21 in 10.0 mi SW 4.6 mph - N/A   Overcast
1:46 PM 77.0 °F 24.8 °F 14% 30.18 in 10.0 mi NNE 4.6 mph - N/A   Overcast
2:44 PM 78.8 °F 24.8 °F 14% 29.80 in 10.0 mi WNW 6.9 mph - N/A   Overcast
3:52 PM 78.8 °F 24.8 °F 14% 30.12 in 10.0 mi NW 6.9 mph - N/A   Overcast
4:43 PM 80.6 °F 23.0 °F 12% 30.12 in 10.0 mi Calm Calm - N/A   Overcast
6:44 PM 69.8 °F 21.2 °F 16% 30.15 in 10.0 mi WNW 5.8 mph - N/A   Overcast
7:41 PM 66.2 °F 19.4 °F 17% 30.18 in 8.0 mi WNW 5.8 mph - N/A   Overcast
8:43 PM 62.6 °F 19.4 °F 19% 29.89 in 8.0 mi Calm Calm - N/A   Mostly Cloudy
9:42 PM 60.8 °F 21.2 °F 22% 30.21 in 8.0 mi Calm Calm - N/A   Scattered Clouds
10:47 PM 57.2 °F 23.0 °F 27% 30.22 in 8.0 mi ENE 6.9 mph - N/A   Scattered Clouds
11:50 PM 57.2 °F 30.2 °F 36% 29.92 in 8.0 mi Calm Calm - N/A   Scattered Clouds